Find Starlink 32443

NORAD ID: 61672 Int'l Des: 2024-193 Owner: SPXS Country: US Constellation: starlink operational
LEOCIRCULAR

リアルタイム位置

3D地球を読み込み中...

Starlink 32443について

説明を読み込み中...

次回通過

Passes for default location (London). Set your location on the main map for personalized predictions.

高度履歴

Loading altitude history...

軌道要素

1 61672U 24193M 26123.52365171 .00036851 00000-0 12571-2 0 9996
2 61672 53.1605 196.1897 0003368 98.9398 261.1984 15.30018852 84928
Epoch: May 3, 2026 • Age: 11 hours

現在のステータス

高度 476.0 km
速度 7.63 km/s
衛星直下点 27.03°N, 0.88°W
打ち上げ日 Oct 26, 2024
運用期間 1.5 years
タイプ internet

技術仕様

分類 Payload
質量 730.00 kg
乾燥質量 700.00 kg
総質量 730.00 kg
長さ 0.30 m
直径 4.10 m
スパン 29.00 m
形状 Box + pan
製造者 SPXS
バスタイプ Starlink V2M
フェーズステータス In Orbit
所有者/国 SPXS/US

Most Searched